User: anonymous
Location: *
(40.4270°N, 9.4940°E)
Time: 15:24:31
(UTC+02:00)
Language:

Okean 2 - Orbit

View from above orbital plane
View from above orbital plane
View from above satellite
View from above satellite

Ground track
Ground track

The orbit data is extracted from the following two-line orbital elements,

1 20510U 90018A   14202.79706943  .00000601  00000-0  51208-4 0  7704
2 20510 082.5180 109.0774 0011902 328.1766 088.6827 14.96021509322551
Epoch (UTC): 21 July 2014 19:07:46
Eccentricity: 0.0011902
inclination: 82.5180°
perigee height: 571 km
apogee height: 587 km
right ascension of ascending node: 109.0774°
argument of perigee: 328.1766°
revolutions per day: 14.96021509
mean anomaly at epoch: 88.6827°
orbit number at epoch: 32255

The dashed part of the orbit path shows where the satellite is in the earth's shadow,  

DLR